Home > Weather > Newport News > Past weeks

Flag for USA Weather for the Past 2 Weeks in Newport News, Virginia, USA

Now
54 °F

Fog.


Feels Like: 52 °F
Forecast: 57 / 63 °F
Wind: 8 mph from Northeast

Location: Newport News / Williamsburg International Airport

Current Time: Apr 29, 2016 at 10:06:00 AM

Latest Report: Apr 29, 2016 at 8:54 AM


Visibility: 2 mi

Pressure: 30.01 "Hg

Humidity: 97%

Dew Point: 53 °F

Location of Newport NewsLocation

Historic Weather in Newport News — Graph

°F

Newport News Temperature Yesterday

Maximum temperature yesterday: 59 °F (at 11:54 AM)
Minimum temperature yesterday: 56 °F (at 7:54 PM)
Average temperature yesterday: 57 °F

High & Low Weather Summary for the Past Weeks

 TemperatureHumidityPressure
High85 °F (Apr 19, 2:54 PM)100% (Apr 23, 9:54 PM)30.45 "Hg (Apr 23, 9:54 PM)
Low36 °F (Apr 16, 4:54 AM)23% (Apr 18, 3:54 PM)29.73 "Hg (Apr 26, 6:54 PM)
Average60 °F68%30.10 "Hg
* Reported Apr 14 8:54 AM — Apr 29 8:54 AM, Newport News, Weather by CustomWeather, © 2016

Note: Actual official high and low records may vary slightly from our data, if they occured in-between our weather recording intervals... More about our weather records

Advertising

Newport News Weather History for the Previous 24 Hours

Scroll right to see more
 ConditionsComfort  
Time TempWeatherWind HumidityBarometerVisibility
8:54 AM
Fri, Apr 29
54 °FFog.8 mph97%30.01 "Hg2 mi
7:54 AM54 °FFog.6 mph97%30.00 "Hg2 mi
6:54 AM54 °FFog.8 mph97%29.98 "Hg2 mi
5:54 AM54 °FFog.7 mph97%29.95 "Hg4 mi
4:54 AM55 °FFog.5 mph96%29.95 "Hg4 mi
3:54 AM55 °FLow clouds.6 mph96%29.94 "Hg10 mi
2:54 AM55 °FLow clouds.6 mph96%29.92 "Hg10 mi
1:54 AM56 °FLow clouds.6 mph97%29.94 "Hg10 mi
12:54 AM56 °FRain. Fog.7 mph93%29.93 "Hg4 mi
11:54 PM
Thu, Apr 28
56 °FThundershowers. Mostly cloudy.8 mph97%29.96 "Hg10 mi
10:54 PM56 °FThundershowers. Fog.12 mph93%29.96 "Hg4 mi
9:54 PM56 °FLow clouds.9 mph93%29.93 "Hg7 mi
8:54 PM56 °FFog.10 mph97%29.94 "Hg4 mi
7:54 PM56 °FFog.9 mph97%29.94 "Hg4 mi
6:54 PM57 °FFog.9 mph93%29.91 "Hg4 mi
5:54 PM57 °FFog.12 mph93%29.91 "Hg5 mi
4:54 PM58 °FLow clouds.9 mph93%29.92 "Hg7 mi
3:54 PM58 °FLow clouds.10 mph93%29.92 "Hg10 mi
2:54 PM58 °FLow clouds.10 mph93%29.93 "Hg10 mi
1:54 PM58 °FLow clouds.13 mph93%29.94 "Hg10 mi
12:54 PM58 °FLight rain. Fog.10 mph93%29.95 "Hg5 mi
11:54 AM59 °FLow clouds.7 mph93%29.97 "Hg10 mi
10:54 AM58 °FLow clouds.12 mph93%29.98 "Hg10 mi
Weather by CustomWeather, © 2016

See weather overviewHow to use our weather pages